Simultaneous Nadir Overpasses (SNOs) Predictions

Prediction of SNOs near US between AQUA and NPP Satellite Orbit:

Table of predicted SNOs near US for the next 10.0 days since TLE Epoch: 10/20/2013
Index Date (AQUA) Time (AQUA) AQUA Lat,Lon Date (NPP) Time (NPP) NPP Lat,Lon Distance(km) Time Diff (sec)
1 10/20/2013 08:34:33 21.63,-101.50 10/20/2013 08:26:40 21.68,-101.67 19.28 473
2 10/20/2013 10:10:55 30.72,-123.96 10/20/2013 10:05:33 30.86,-124.63 66.43 322
3 10/23/2013 07:18:36 49.90, -75.95 10/23/2013 07:21:24 50.32, -78.19 165.97 168
4 10/23/2013 08:57:29 49.90,-100.68 10/23/2013 09:02:51 50.48,-103.49 210.50 322
5 10/25/2013 18:16:40 49.99, -80.13 10/25/2013 18:11:42 49.70, -81.82 125.54 298
6 10/25/2013 19:55:33 49.99,-104.85 10/25/2013 19:53:10 49.59,-107.15 170.79 143
7 10/25/2013 21:30:41 36.59,-124.90 10/25/2013 21:30:46 36.04,-127.58 247.10 5
8 10/28/2013 07:45:15 20.02, -89.43 10/28/2013 07:36:55 18.41, -89.77 182.78 500
9 10/28/2013 09:22:04 27.48,-112.35 10/28/2013 09:15:48 27.60,-112.82 48.16 376




NCC Satellite Simultaneous Nadir Overpasses (SNOs) Prediction Service
